Regional Weather Roundup
Issued by NWS

Home | Current Version | Previous Version | Text Only | Print | Product List | Glossary Off
Versions: 1 2 3 4 5 6 7 8 9 10 11 12 13 14 15 16 17 18 19 20 21 22 23 24 25 26 27 28 29 30 31 32 33 34 35 36 37 38 39 40 41 42 43 44 45 46 47 48 49 50

000
ASUS45 KBOU 180907
RWRCO

WEATHER ROUNDUP FOR COLORADO
NATIONAL WEATHER SERVICE DENVER/BOULDER CO
300 AM MDT SAT APR 18 2015

NOTE: "FAIR" INDICATES FEW OR NO CLOUDS BELOW 12000 FEET WITH NO
SIGNIFICANT WEATHER AND/OR OBSTRUCTIONS TO VISIBILITY.

COZ001>005-013-030-031-181000-
...NORTHWEST COLORADO...

CITY           SKY/WX    TMP DP  RH WIND       PRES   REMARKS
CRAIG          CLOUDY    35  32  88 SW10      30.02F WCI  27
HAYDEN         NOT AVBL
MEEKER         CLOUDY    37  33  85 MISG      30.02F
MOUNT WERNER   NOT AVBL
STEAMBOAT SPGS CLOUDY    30  25  81 E3        29.99F
WALDEN         CLOUDY    28  25  86 N3        29.98F
$$

COZ006>008-011-181000-
...WEST CENTRAL VALLEYS...

CITY           SKY/WX    TMP DP  RH WIND       PRES   REMARKS
GRAND JUNCTION CLOUDY    35  35 100 E5        30.04F FOG     WCI  31
MONTROSE       CLOUDY    32  31  96 N3        30.06F
EAGLE          CLOUDY    30  28  93 W5        30.05F WCI  25
RIFLE          CLOUDY    34  31  88 NE3       30.05S
DELTA          CLOUDY    36  35  98 E5        30.05F
NUCLA          FOG       32  32 100 NW6       30.07S VSB 1/4 WCI  26
$$

COZ017>023-064>068-181000-
...SOUTHWEST COLORADO...

CITY           SKY/WX    TMP DP  RH WIND       PRES   REMARKS
DURANGO        LGT SNOW  31  30  96 N5        30.02R VSB 1   WCI  26
CORTEZ         CLOUDY    33  33 100 CALM      30.02F
PAGOSA SPRINGS CLOUDY    25  19  78 CALM      30.01S
TELLURIDE      PTCLDY    23  22  97 CALM      30.00F FOG
WOLF CREEK PAS PTCLDY    10  10 100 NE13      30.01F WCI  -5
$$

COZ009-010-012-014-032>034-037-058>063-181000-
...CENTRAL COLORADO...

CITY           SKY/WX    TMP DP  RH WIND       PRES   REMARKS
ASPEN          MOCLDY    20  17  88 CALM      30.00F
BUENA VISTA    MOCLDY    20  14  79 SW7       30.02S WCI  11
COPPER MTN     CLOUDY    19  12  73 CALM      29.99F
BERTHOUD PASS  CLOUDY    12   5  73 N3        30.01F HAZE
COTTONWOOD PAS MOCLDY    27  14  59 CALM      30.00F
GUNNISON       PTCLDY    21  18  86 CALM      30.06S
KREMMLING      CLOUDY    30  21  69 CALM      30.02S
LEADVILLE      CLOUDY    12  10  92 S5        29.99F WCI   4
MONARCH PASS   CLOUDY    14  10  85 MISG      30.10F
SALIDA         MOCLDY    22  16  76 W5        30.10F WCI  16
SUNLIGHT       CLOUDY    21  19  93 N3        30.05F
WILKERSON PASS LGT SNOW  19  16  86 CALM      30.02S VSB 3/4
$$

COZ069>075-181000-
...SAN LUIS VALLEY/SANGRE DE CRISTO MOUNTAINS...

CITY           SKY/WX    TMP DP  RH WIND       PRES   REMARKS
ALAMOSA        MOCLDY    22  17  81 N6        30.00F WCI  14
LA VETA PASS   PTCLDY    18  14  86 S6        29.99F WCI   9
SAGUACHE       CLEAR     25  19  80 NW9       30.02F WCI  15
$$

COZ035-036-038>040-181000-
...NORTHERN COLORADO FRONT RANGE...

CITY           SKY/WX    TMP DP  RH WIND       PRES   REMARKS
DENVER INTL AP MOCLDY    37  36  96 NW8       29.98F
DMNS CITY PARK   N/A     39  36  89 N1        29.99S
AURORA         MOCLDY    35  35 100 NW5       29.99F WCI  31
FRONT RANGE AP MOCLDY    37  36  93 NW6       29.99F
ERIE MUNI ARPT CLOUDY    39  37  91 CALM      30.00F
BOULDER MUN AP CLOUDY    39  36  87 N3        29.99F
CENTENNIAL     MOCLDY    35  34  96 E5        29.98F WCI  31
BROOMFIELD     CLOUDY    37  36  93 N8        29.99F
FORT COLLINS   CLOUDY    39  34  81 N8        29.99F
LONGMONT       CLOUDY    41  36  80 CALM      30.02F
$$

COZ041-046-047-076>085-087-088-181000-
...PIKES PEAK/PALMER DIVIDE AND SOUTHERN FOOTHILLS...

CITY           SKY/WX    TMP DP  RH WIND       PRES   REMARKS
COLO. SPRINGS  MOCLDY    37  32  82 NW9       29.98F
A. F. ACADEMY  MOCLDY    33  32  99 NW6       29.97F WCI  27
ELLICOTT       PTCLDY   N/A N/A N/A N10       29.96F
FALCON         MOCLDY    33  32  96 N12       29.99S WCI  24
FORT CARSON    PTCLDY    37  32  83 N12       29.95F
LIMON          CLEAR     34  32  92 NW8       29.96F WCI  27
MONUMENT HILL  FOG       32  32 100 NE5       29.97F VSB 1/2 WCI  27
TRINIDAD       PTCLDY    34  27  75 W7        29.98S WCI  28
$$

COZ042>045-048>051-090-091-181000-
...NORTHEAST COLORADO...

CITY           SKY/WX    TMP DP  RH WIND       PRES   REMARKS
GREELEY ARPT   CLOUDY    39  30  70 N5        29.99R
AKRON          MOCLDY    38  38 100 N13       29.95F
BURLINGTON     CLOUDY    43  41  93 N8        29.94S
WRAY           CLOUDY    45  43  92 NW12G20   29.94F
STERLING       MOCLDY    41  39  93 N9        29.93F
HOLYOKE        CLOUDY    46  43  87 N16       29.95F
FORT MORGAN    MOCLDY    38  36  94 N5        29.98F
$$

COZ086-089-092>099-181000-
...SOUTHEAST COLORADO...

CITY           SKY/WX    TMP DP  RH WIND       PRES   REMARKS
PUEBLO         CLOUDY    40  34  79 S10       29.99R
LA JUNTA       CLOUDY    40  36  86 W9        29.98R
LAMAR          PTCLDY    42  38  85 W9        29.93R
SPRINGFIELD      N/A     40  37  89 NW12      29.93F
$$


USA.gov is the U.S. government's official web portal to all federal, state and local government web resources and services.